Location: Knobs
(40.8333°S, 175.2333°E)
Time: 02:22:36
(UTC+00:00)

Cosmos 2221 - Pass Details

Date: 12 June 2024
Orbit: 580 x 603 km, 82.5° (Epoch: 22 July)

Event Time Altitude Azimuth Distance (km) Brightness Sun altitude
Rises 17:35:57 0° 17° (NNE) 2,799 6.3 -22.8°
Reaches altitude 10° 17:38:17 10° 26° (NNE) 1,911 5.5 -22.4°
Maximum altitude 17:42:03 32° 90° (E) 1,026 4.3 -21.7°
Drops below altitude 10° 17:45:53 10° 152° (SSE) 1,949 5.3 -21.0°
Sets 17:48:17 0° 162° (SSE) 2,865 6.0 -20.5°
